TimePST,TemperatureF,Dew PointF,Humidity,Sea Level PressureIn,VisibilityMPH,Wind Direction,Wind SpeedMPH,Gust SpeedMPH,PrecipitationIn,Events,Conditions,WindDirDegrees,DateUTC
12:56 AM,42.1,39.9,92,30.19,10.0,Calm,Calm,-,N/A,,Clear,0,2011-11-16 08:56:00
1:56 AM,39.9,37.9,93,30.19,10.0,Calm,Calm,-,N/A,,Clear,0,2011-11-16 09:56:00
2:56 AM,39.9,37.9,93,30.19,10.0,Calm,Calm,-,N/A,,Clear,0,2011-11-16 10:56:00
4:56 AM,37.0,36.0,96,30.20,9.0,Calm,Calm,-,N/A,,Clear,0,2011-11-16 12:56:00
5:25 AM,37.4,35.6,93,30.21,9.0,Calm,Calm,-,N/A,,Partly Cloudy,0,2011-11-16 13:25:00
5:56 AM,37.9,37.0,97,30.22,10.0,Calm,Calm,-,N/A,,Clear,0,2011-11-16 13:56:00
6:56 AM,37.0,35.1,93,30.23,10.0,Calm,Calm,-,0.01,,Clear,0,2011-11-16 14:56:00
7:56 AM,39.9,37.9,93,30.25,10.0,Calm,Calm,-,N/A,,Clear,0,2011-11-16 15:56:00
8:56 AM,44.1,41.0,89,30.26,10.0,Calm,Calm,-,N/A,,Clear,0,2011-11-16 16:56:00
9:56 AM,51.1,44.1,77,30.26,10.0,Calm,Calm,-,N/A,,Clear,0,2011-11-16 17:56:00
10:56 AM,55.0,44.1,67,30.25,10.0,Calm,Calm,-,N/A,,Clear,0,2011-11-16 18:56:00
11:56 AM,59.0,45.0,60,30.22,10.0,Calm,Calm,-,N/A,,Clear,0,2011-11-16 19:56:00
12:56 PM,63.0,45.0,52,30.20,10.0,Calm,Calm,-,N/A,,Clear,0,2011-11-16 20:56:00
1:56 PM,66.0,46.0,48,30.18,10.0,NNW,6.9,-,N/A,,Clear,330,2011-11-16 21:56:00
2:56 PM,66.0,45.0,47,30.17,10.0,North,6.9,-,N/A,,Clear,350,2011-11-16 22:56:00
3:56 PM,64.0,46.0,52,30.17,10.0,North,4.6,-,N/A,,Clear,10,2011-11-16 23:56:00
4:56 PM,55.9,45.0,67,30.18,10.0,Calm,Calm,-,N/A,,Clear,0,2011-11-17 00:56:00
5:56 PM,52.0,45.0,77,30.19,10.0,Calm,Calm,-,N/A,,Clear,0,2011-11-17 01:56:00
6:56 PM,51.1,45.0,80,30.22,10.0,Calm,Calm,-,N/A,,Clear,0,2011-11-17 02:56:00
7:56 PM,48.0,44.1,86,30.23,7.0,Calm,Calm,-,N/A,,Clear,0,2011-11-17 03:56:00
8:56 PM,46.9,44.1,90,30.24,8.0,Calm,Calm,-,N/A,,Clear,0,2011-11-17 04:56:00
9:56 PM,46.0,44.1,93,30.23,10.0,Calm,Calm,-,N/A,,Clear,0,2011-11-17 05:56:00
10:56 PM,45.0,43.0,93,30.23,10.0,Calm,Calm,-,N/A,,Clear,0,2011-11-17 06:56:00
11:56 PM,46.0,43.0,89,30.22,10.0,NW,3.5,-,N/A,,Clear,310,2011-11-17 07:56:00